Weather Roundup
Issued by NWS Chicago, IL

Home | Current Version | Previous Version | Graphics & Text | Print | Product List | Glossary On
Versions: 1 2 3 4 5 6 7 8 9 10 11 12 13 14 15 16 17 18 19 20 21 22 23 24 25 26 27 28 29 30 31 32 33 34 35 36 37 38 39 40 41 42 43 44 45 46 47 48 49 50
000
NZUS59 KLOT 291112
HRRLOT

CHICAGO AREA WEATHER ROUNDUP
NATIONAL WEATHER SERVICE CHICAGO/ROMEOVILLE IL
600 AM CDT SAT AUG 29 2015

NOTE: "FAIR" INDICATES FEW OR NO CLOUDS BELOW 12,000 FEET WITH NO
SIGNIFICANT WEATHER AND/OR OBSTRUCTIONS TO VISIBILITY.

* THESE STATIONS ARE NOT UNDER NWS QUALITY CONTROL. THEY ALSO MAY NOT
  REPORT WEATHER SUCH AS PRECIPITATION OR FOG.

ILZ005-006-012>014-019>023-291200-
NORTHEAST ILLINOIS

CITY           SKY/WX    TMP DP  RH WIND       PRES   REMARKS
OHARE          RAIN      63  62  97 SE9       30.02F FOG
MIDWAY         LGT RAIN  67  61  81 E5        30.04S
AURORA         LGT RAIN  64  62  93 SE6       30.04S FOG
LANSING*       CLOUDY    64  59  82 SE3       30.05S
JOLIET*        LGT RAIN  66  62  87 CALM      30.04R
WAUKEGAN       LGT RAIN  64  62  93 S6        30.05R
DUPAGE AIRPORT RAIN      63  61  93 SE6       30.02R FOG
WHEELING       RAIN      64  61  90 VRB3      30.04F FOG
KANKAKEE*      CLOUDY    63  61  94 CALM      30.05R
MORRIS*        RAIN      64  62  92 CALM      30.03R
LEWIS AIRPORT* CLOUDY    64  60  88 SE5       30.04S
NORTHERLY IS     N/A     64  60  87 CALM        N/A
$$

WIZ051-052-058>065-066-070>072-291200-
SOUTHEAST WISCONSIN

CITY           SKY/WX    TMP DP  RH WIND       PRES   REMARKS
MILWAUKEE      LGT RAIN  60  58  92 NE7       30.06R FOG
KENOSHA*       RAIN      65  62  90 S10       30.04S FOG
RACINE*        LGT RAIN  64  61  90 N3        30.07R FOG
BURLINGTON     RAIN      62  61  97 CALM      30.04R
WAUKESHA       LGT RAIN  57  57 100 NE13      30.06S
WEST BEND      HVY RAIN  57  55  94 CALM      30.08R
$$

INZ001>003-010>013-019-020-291200-
NORTHWEST INDIANA

CITY           SKY/WX    TMP DP  RH WIND       PRES   REMARKS
GARY*          CLOUDY    66  59  77 SE7       30.05S
MICHIGAN CITY* NOT AVBL
RENSSELAER*    NOT AVBL
VALPARAISO     CLOUDY    62  59  90 CALM      30.07R
$$

LMZ740>746-291200-
SOUTHERN LAKE MICHIGAN

STATION/POSITION TIME  SKY/WX   TEMP WIND        PRES    VSBY
                                AIR  DIR/SP/G
                 (UTC)          (F)  (DEG/KT/KT) (MB)    (MI)
HARRISON CRIB    1000            66  180/  8/ 10   N/A
BURNHAM HARBOR   1100            63  150/  4/  6   N/A
CALUMET HARBOR   NOT AVBL
BURNS HARBOR     1000            68  160/  8/ 14 1017.9S
MICHIGAN CITY    1000            67  130/ 10/ 11   N/A
$$

ABBREVIATIONS USED IN REMARKS
   TC - TEMPERATURE IN CELSIUS
  WCI - WIND CHILL INDEX
   HX - HEAT INDEX
  VSB - VISIBILITY
$$



USA.gov is the U.S. government's official web portal to all federal, state and local government web resources and services.